Time,TemperatureF,DewpointF,PressureIn,WindDirection,WindDirectionDegrees,WindSpeedMPH,WindSpeedGustMPH,Humidity,HourlyPrecipIn,Conditions,Clouds,dailyrainin,SolarRadiationWatts/m^2,UVIndex,SoftwareType,DateUTC
2026-05-08 00:04:56,53.5,52.1,29.94,NNW,328,0.4,2.4,95,0.00,,,0.00,0,0,n/a,2026-05-08T04:04:56Z
2026-05-08 00:09:59,53.5,52.1,29.94,NW,322,1,2.4,95,0.00,,,0.00,0,0,n/a,2026-05-08T04:09:59Z
2026-05-08 00:14:58,53.5,52.1,29.95,NW,313,0.1,2.3,95,0.00,,,0.00,0,0,n/a,2026-05-08T04:14:58Z
2026-05-08 00:19:57,53.5,52.1,29.95,NW,313,0,0,95,0.00,,,0.00,0,0,n/a,2026-05-08T04:19:57Z
2026-05-08 00:24:59,53.5,52.1,29.95,NW,313,0.3,1.2,95,0.00,,,0.00,0,0,n/a,2026-05-08T04:24:59Z
2026-05-08 00:29:59,53.5,52.1,29.95,NW,313,0.2,1.2,95,0.00,,,0.00,0,0,n/a,2026-05-08T04:29:59Z
2026-05-08 00:34:58,53.4,52,29.95,NW,313,0,1.2,95,0.00,,,0.00,0,0,n/a,2026-05-08T04:34:58Z
2026-05-08 00:39:57,53.4,52,29.95,NW,313,0.5,2.4,95,0.00,,,0.00,0,0,n/a,2026-05-08T04:39:57Z
2026-05-08 00:44:56,53.4,52,29.96,NW,313,0,1.2,95,0.00,,,0.00,0,0,n/a,2026-05-08T04:44:56Z
2026-05-08 00:49:59,53.4,52,29.96,NW,313,0.6,2.4,95,0.00,,,0.00,0,0,n/a,2026-05-08T04:49:59Z
2026-05-08 00:54:57,53.3,51.9,29.96,NNW,348,1,2.4,95,0.00,,,0.00,0,0,n/a,2026-05-08T04:54:57Z
2026-05-08 00:59:56,53.3,51.9,29.96,North,350,0.4,2.3,95,0.00,,,0.00,0,0,n/a,2026-05-08T04:59:56Z
2026-05-08 01:04:56,53.2,51.8,29.95,North,350,1.1,2.4,95,0.00,,,0.00,0,0,n/a,2026-05-08T05:04:56Z
2026-05-08 01:09:57,53.1,51.7,29.95,North,350,1.1,2.4,95,0.00,,,0.00,0,0,n/a,2026-05-08T05:09:57Z
2026-05-08 01:14:56,52.9,51.5,29.95,North,350,0.8,2.4,95,0.00,,,0.00,0,0,n/a,2026-05-08T05:14:56Z
2026-05-08 01:19:58,52.8,51.4,29.95,North,350,0.2,1.2,95,0.00,,,0.00,0,0,n/a,2026-05-08T05:19:58Z
2026-05-08 01:24:57,52.6,51.2,29.95,North,350,0,1.2,95,0.00,,,0.00,0,0,n/a,2026-05-08T05:24:57Z
2026-05-08 01:29:55,52.5,51.1,29.95,North,350,0.1,1.2,95,0.00,,,0.00,0,0,n/a,2026-05-08T05:29:55Z
2026-05-08 01:34:59,52.4,51,29.95,North,350,0,0,95,0.00,,,0.00,0,0,n/a,2026-05-08T05:34:59Z
2026-05-08 01:39:58,52.3,50.9,29.95,North,350,0,1.2,95,0.00,,,0.00,0,0,n/a,2026-05-08T05:39:58Z
2026-05-08 01:44:57,52.2,50.8,29.96,North,350,0,0,95,0.00,,,0.00,0,0,n/a,2026-05-08T05:44:57Z
2026-05-08 01:49:59,52.1,50.7,29.96,North,350,0.8,2.4,95,0.00,,,0.00,0,0,n/a,2026-05-08T05:49:59Z
2026-05-08 01:54:58,52.1,50.7,29.96,North,350,1.1,2.4,95,0.00,,,0.00,0,0,n/a,2026-05-08T05:54:58Z
2026-05-08 01:59:57,52.1,50.7,29.96,North,350,0.2,1.2,95,0.00,,,0.00,0,0,n/a,2026-05-08T05:59:57Z
2026-05-08 02:04:57,52.1,50.7,29.96,North,350,0.6,2.4,95,0.00,,,0.00,0,0,n/a,2026-05-08T06:04:57Z
2026-05-08 02:09:57,52,50.6,29.96,North,350,0,1.2,95,0.00,,,0.00,0,0,n/a,2026-05-08T06:09:57Z
2026-05-08 02:14:56,52,50.6,29.96,North,350,0.6,1.2,95,0.00,,,0.00,0,0,n/a,2026-05-08T06:14:56Z
2026-05-08 02:19:59,52,50.6,29.96,North,350,0.6,1.2,95,0.00,,,0.00,0,0,n/a,2026-05-08T06:19:59Z